691  
NZUS99 KDVN 231810  
HRRRRR  
HOURLY WEATHER ROUNDUP  
NATIONAL WEATHER SERVICE QUAD CITIES IA IL  
100 PM CDT SAT OCT 23 2021  
 
NOTE: "FAIR" INDICATES FEW OR NO CLOUDS BELOW 12,000 FEET WITH  
NO SIGNIFICANT WEATHER AND/OR OBSTRUCTIONS TO VISIBILITY.  
------------------------------------------------------------------  
 
CITY SKY/WX TMP DP RH WIND PRES REMARKS  
BURLINGTON PTSUNNY 51 38 60 VRB6 30.03F  
6HR MIN TEMP: 40; 6HR MAX TEMP: 51;  
 
CEDAR RAPIDS SUNNY 51 36 56 VRB5 30.03F  
6HR MIN TEMP: 29; 6HR MAX TEMP: 51;  
 
DAVENPORT MOSUNNY 52 34 50 E6 30.06F  
6HR MIN TEMP: 30; 6HR MAX TEMP: 53;  
 
DUBUQUE SUNNY 50 31 48 N9 30.05F WCI 46  
6HR MIN TEMP: 30; 6HR MAX TEMP: 50;  
 
IOWA CITY MOSUNNY 54 33 45 VRB5 30.05F  
6HR MIN TEMP: 32; 6HR MAX TEMP: 54;  
 
MOLINE MOSUNNY 53 36 52 VRB5 30.04F  
6HR MIN TEMP: 32; 6HR MAX TEMP: 54;  
 
------------------------------------------------------------------  
THE STATIONS BELOW ARE NOT NWS STATIONS AND ARE NOT SUBJECT TO NWS  
QUALITY CONTROL. SOME STATIONS DO NOT REPORT WEATHER SUCH AS FOG.  
* - STATIONS THAT REPORT TMP AND DP IN WHOLE DEGREES CELSIUS, WHICH  
ARE THEN CONVERTED TO FAHRENHEIT.  
------------------------------------------------------------------  
 
CITY SKY/WX TMP DP RH WIND PRES REMARKS  
CLINTON MOSUNNY 52 33 48 SE6 30.05F HAZE  
6HR MIN TEMP: 28; 6HR MAX TEMP: 52;  
 
FAIRFIELD * MOSUNNY 50 36 57 E9 30.02F WCI 46  
FORT MADISON * N/A 52 39 62 NE6 30.03F  
FREEPORT SUNNY 52 24 34 CALM 30.07F  
6HR MIN TEMP: 30; 6HR MAX TEMP: 53;  
 
INDEPENDENCE SUNNY 53 34 49 E8 30.04F  
KEOKUK * N/A 54 39 58 E9 30.01F  
MACOMB CLOUDY 50 38 62 E8 30.05F WCI 47  
6HR MIN TEMP: 40; 6HR MAX TEMP: 50;  
 
MONTICELLO * SUNNY 52 32 46 E6 30.04F  
MT PLEASANT * MOSUNNY 54 36 50 E8 30.03F  
MUSCATINE * MOSUNNY 54 34 47 NE8G14 30.04F  
SAVANNA * MOSUNNY 52 34 50 CALM 30.05F  
STERLING/R.F. MOSUNNY 54 33 45 VRB3 30.05F  
6HR MIN TEMP: 30; 6HR MAX TEMP: 55;  
 
VINTON SUNNY 55 35 46 E7 30.05S  
6HR MIN TEMP: 28; 6HR MAX TEMP: 55;  
 
WASHINGTON * MOSUNNY 54 37 54 E8 30.02F  
------------------------------------------------------------------  
 
 
CLICK HERE TO GO TO PREVIOUS BULLETINS.

The Nexlab IL Page
The Nexlab IA Page
The Nexlab MO Page Main Text Page